Snowfall_Accumulation
0.0 0.0 0.0 0.0 0.0 0.0 0.0 0.0 0.0 0.0 0.0 0.0 0.0 0.0 0.0 0.0 0.0 0.0 0.0 0.0 0.0 0.0 0.0 0.0 0.0 0.0 0.0 0.0 0.0 0.0 0.0 0.0 0.4 0.0 0.0 0.0 0.0 0.0 0.0 0.0 0.0 0.0 0.0
0.0 0.0 0.0 0.0 0.0 0.0 0.0 0.0 0.0 0.0 0.0 0.0 0.0 0.0 0.0 0.0 0.0 0.0 0.0 0.0 0.0 0.0 0.0 0.0 0.0 0.0 0.1 0.0 0.0 0.1 0.0 0.0 0.2 0.1 0.0 0.0 0.0 0.0 0.0 0.0 0.0 0.0 0.0
0.0 0.0 0.0 0.0 0.0 0.0 0.0 0.0 0.0 0.0 0.0 0.0 0.0 0.0 0.0 0.0 0.0 0.0 0.0 0.0 0.0 0.0 0.0 0.0 0.1 0.1 0.2 0.3 0.1 0.1 0.1 0.0 0.1 0.3 0.2 0.0 0.0 0.0 0.0 0.0 0.0 0.0 0.0
0.0 0.0 0.0 0.0 0.0 0.0 0.0 0.0 0.0 0.0 0.0 0.0 0.0 0.0 0.0 0.0 0.0 0.0 0.0 0.0 0.0 0.0 0.0 0.1 0.1 0.0 0.1 0.2 0.3 0.2 0.2 0.6 0.5 0.4 0.2 0.1 0.0 0.0 0.0 0.0 0.0 0.0 0.0
0.0 0.0 0.0 0.0 0.0 0.0 0.1 0.1 0.1 0.1 0.0 0.0 0.0 0.1 0.0 0.0 0.0 0.0 0.0 0.1 0.1 0.1 0.1 0.1 0.1 0.0 nan nan 0.5 0.4 0.4 0.9 1.5 1.9 0.5 0.2 0.0 0.0 0.0 0.0 0.2 0.1 0.1
0.0 0.0 0.0 0.1 0.2 0.3 0.3 0.3 0.2 0.2 0.2 0.2 0.2 0.2 0.2 0.0 nan nan 0.1 0.2 0.2 0.1 0.2 0.2 0.3 0.2 0.2 nan nan nan nan 1.9 8.9 7.8 0.8 0.7 0.1 0.1 0.0 0.1 0.3 0.4 1.1
0.2 0.5 0.5 0.4 0.5 0.4 0.3 0.3 0.3 0.3 0.3 0.3 0.3 0.3 0.5 0.4 nan nan nan 0.4 0.3 0.2 0.2 0.4 0.5 0.4 0.2 0.2 nan nan nan nan nan 0.3 0.8 0.2 0.2 0.0 0.1 0.3 0.2 0.7 0.7
0.4 0.9 0.8 0.5 1.1 0.5 0.5 0.5 0.4 0.3 0.5 0.5 0.6 0.6 0.6 0.5 nan nan nan 0.4 0.4 0.4 0.4 0.6 0.7 0.6 0.5 0.4 0.4 1.2 0.6 0.4 0.2 0.1 0.2 0.2 0.1 0.1 0.4 0.8 1.2 1.6 1.2
0.2 0.4 0.4 0.8 1.5 0.8 2.2 0.9 0.7 1.4 1.2 2.2 2.0 3.6 2.9 2.5 nan nan 0.9 1.6 1.5 1.3 0.6 1.0 1.1 0.9 nan nan 2.2 4.6 2.7 1.1 nan nan nan nan nan nan nan 5.7 15.6 16.9 8.5
0.2 0.2 0.3 0.8 2.6 2.2 0.9 1.7 2.2 2.5 2.5 3.7 3.6 3.3 1.3 5.0 nan nan nan 5.3 6.7 4.1 2.4 1.2 0.7 1.2 nan nan 2.6 4.5 6.0 1.8 1.1 3.3 1.0 0.5 nan nan nan 1.0 5.4 17.1 8.6
0.8 0.8 1.1 1.1 3.2 1.6 2.1 1.7 3.2 4.6 3.0 5.1 4.8 3.9 4.5 2.6 2.6 nan nan 3.7 5.3 7.1 6.3 4.4 2.6 nan nan nan nan 4.5 4.1 2.1 6.6 5.4 4.4 4.2 2.8 1.9 1.8 1.3 1.0 3.0 7.2
1.7 1.9 2.4 4.0 3.4 3.4 7.5 5.0 7.0 6.8 6.9 6.2 6.5 5.6 4.8 2.8 nan nan nan nan nan 9.7 5.2 2.4 2.6 nan nan nan 2.4 nan nan 2.1 10.4 11.6 9.5 6.8 3.9 3.6 2.2 1.8 0.5 1.0 0.9
5.0 7.0 7.0 5.9 6.2 6.1 9.1 6.5 8.2 7.7 8.6 5.5 7.3 7.1 5.6 5.3 5.6 nan nan nan nan 4.8 3.3 2.6 nan nan nan nan nan nan 1.1 7.4 11.2 13.0 8.1 4.1 2.0 1.4 0.7 1.6 1.0 1.1 1.1
9.5 5.2 4.3 5.7 4.0 4.9 6.0 7.1 10.7 9.1 8.0 9.0 10.5 10.0 6.9 6.6 4.8 4.8 7.7 4.8 2.6 6.1 nan 4.4 nan 3.4 nan nan 3.3 3.0 5.1 5.6 6.3 7.2 5.4 2.3 2.1 3.7 4.5 3.1 5.1 4.6 8.6
6.8 3.8 4.4 6.2 6.9 4.8 4.7 7.0 6.7 4.4 9.2 16.4 19.1 14.3 14.9 13.4 9.6 5.4 11.8 12.9 11.0 11.0 8.7 14.9 11.9 7.6 7.4 6.3 7.7 6.7 5.9 6.6 7.7 7.5 7.6 7.2 6.5 6.2 6.0 4.6 5.3 7.1 9.9
4.1 6.0 5.8 5.6 4.6 4.3 4.5 4.8 nan nan nan nan nan 9.7 13.2 nan nan nan nan nan nan nan 21.0 23.0 11.7 9.1 6.9 7.0 8.6 7.9 6.8 6.1 6.6 7.8 8.8 8.8 9.3 7.6 7.9 8.6 8.5 9.9 10.9
7.2 4.9 6.2 4.8 5.1 5.7 6.0 7.0 8.4 5.5 nan nan nan nan nan nan nan nan nan nan nan nan 33.4 18.3 15.1 10.4 9.6 7.5 9.1 8.3 8.1 6.4 4.3 7.7 7.5 8.2 9.0 10.0 10.3 9.9 8.9 8.4 12.1
6.7 1.9 7.3 7.1 6.8 7.1 7.8 8.0 8.3 9.8 11.2 9.3 nan nan nan nan nan nan nan nan 26.9 nan 24.7 24.7 21.4 17.3 13.5 12.3 10.2 9.8 9.8 9.2 8.7 10.1 10.5 14.2 15.7 16.5 14.8 14.4 10.8 13.3 12.9
7.2 6.2 6.8 6.9 6.6 6.9 7.7 7.0 7.7 7.8 8.3 10.4 10.0 10.0 5.5 nan nan nan nan 18.1 24.6 22.2 22.3 23.2 19.7 18.3 14.8 15.7 15.0 17.1 15.1 15.6 14.8 19.5 19.5 20.6 18.4 19.1 18.4 13.2 10.4 6.4 7.5
7.8 3.2 6.0 10.4 8.8 7.8 5.8 7.7 7.0 7.3 8.3 9.7 10.2 8.9 15.5 15.4 22.2 23.0 19.4 26.1 26.1 23.5 20.6 23.0 23.6 25.7 26.0 24.1 23.6 22.0 22.2 23.4 21.4 22.4 22.2 21.0 19.2 19.9 13.7 18.0 15.4 13.1 14.4
13.5 11.3 2.4 10.0 12.5 12.6 12.7 10.2 8.1 11.3 10.1 12.1 9.3 8.9 nan 15.9 17.2 18.8 21.9 20.4 24.0 26.0 21.8 23.8 25.2 31.5 32.4 35.0 29.6 28.5 27.0 17.4 21.7 23.9 25.3 25.2 24.1 28.8 17.6 11.8 16.3 17.2 16.8
15.1 15.6 15.6 16.6 11.5 12.0 13.8 9.5 10.7 11.0 10.3 9.0 7.0 7.5 nan 10.1 12.8 13.5 15.6 20.5 25.2 25.7 29.1 34.0 33.5 36.2 32.1 29.7 27.2 25.2 21.3 25.1 27.1 25.9 21.8 22.9 26.3 22.6 21.3 14.7 15.2 13.1 16.8
12.6 11.2 11.9 11.9 11.5 6.0 13.0 15.1 13.2 12.5 11.4 12.6 11.0 11.6 13.8 16.7 14.6 14.6 22.0 25.3 20.2 19.0 21.4 22.8 21.4 21.4 20.0 23.2 20.5 20.0 21.8 24.8 26.1 32.6 23.7 24.5 23.9 26.6 23.1 20.1 17.3 18.6 17.1
11.5 11.6 11.3 15.1 13.3 10.9 13.2 14.4 12.4 5.8 12.9 14.3 23.7 18.5 10.8 15.0 22.1 16.4 17.4 20.8 17.0 28.7 20.6 22.2 18.4 17.9 19.6 29.4 36.4 35.7 38.1 39.8 38.7 35.8 32.4 23.3 23.4 19.1 19.5 21.3 16.6 14.7 13.0
14.4 12.1 12.4 11.4 18.1 14.5 13.6 16.5 11.5 16.2 19.4 14.8 18.6 13.9 15.0 14.0 15.0 21.9 20.4 16.7 18.6 17.1 14.7 14.6 15.4 15.9 16.2 17.3 24.1 30.4 29.9 4.3 20.0 4.7 28.7 20.9 25.4 26.2 24.8 20.3 18.6 15.5 12.7
11.4 12.0 12.4 12.9 12.6 14.2 15.1 14.9 15.7 12.5 16.4 17.8 16.7 16.9 14.4 14.5 14.7 17.7 16.5 16.6 13.2 13.8 14.2 15.7 15.6 13.5 12.6 14.6 15.8 6.7 4.0 3.5 24.1 4.0 23.2 19.5 22.9 22.1 21.8 21.9 20.2 18.1 14.6
Water_Equivalent
0.00 0.00 0.00 0.00 0.00 0.00 0.00 0.00 0.00 0.00 0.00 0.00 0.00 0.00 0.00 0.00 0.00 0.00 0.00 0.00 0.00 0.00 0.00 0.00 0.00 0.00 0.00 0.01 0.00 0.00 0.00 0.00 0.09 0.00 0.00 0.00 0.00 0.00 0.00 0.00 0.00 0.00 0.00
0.00 0.00 0.00 0.00 0.00 0.00 0.00 0.00 0.00 0.00 0.00 0.00 0.00 0.00 0.00 0.00 0.00 0.00 0.00 0.00 0.00 0.00 0.00 0.00 0.00 0.00 0.03 0.01 0.00 0.01 0.01 0.00 0.03 0.02 0.00 0.00 0.01 0.00 0.00 0.00 0.00 0.00 0.00
0.00 0.00 0.00 0.00 0.00 0.00 0.00 0.00 0.00 0.00 0.00 0.00 0.00 0.00 0.00 0.00 0.00 0.00 0.00 0.00 0.00 0.00 0.00 0.00 0.01 0.02 0.03 0.06 0.01 0.02 0.02 0.01 0.02 0.06 0.03 0.01 0.01 0.00 0.00 0.00 0.00 0.00 0.00
0.00 0.00 0.00 0.00 0.00 0.00 0.00 0.00 0.00 0.00 0.00 0.00 0.00 0.00 0.00 0.00 0.00 0.00 0.01 0.01 0.01 0.01 0.01 0.01 0.01 0.01 0.03 0.04 0.05 0.04 0.03 0.11 0.08 0.06 0.04 0.01 0.01 0.00 0.00 0.00 0.01 0.00 0.00
0.00 0.00 0.00 0.00 0.00 0.00 0.01 0.02 0.02 0.02 0.00 0.00 0.00 0.01 0.00 0.00 0.00 0.01 0.01 0.03 0.03 0.02 0.02 0.03 0.02 0.01 nan nan 0.09 0.07 0.07 0.15 0.25 0.28 0.06 0.03 0.01 0.00 0.01 0.00 0.03 0.02 0.01
0.00 0.00 0.00 0.03 0.04 0.05 0.06 0.05 0.03 0.03 0.03 0.03 0.03 0.03 0.03 0.01 nan nan 0.02 0.04 0.04 0.03 0.03 0.04 0.05 0.03 0.03 nan nan nan nan 0.26 0.94 0.89 0.10 0.07 0.01 0.01 0.00 0.02 0.05 0.07 0.15
0.04 0.09 0.08 0.07 0.07 0.06 0.05 0.05 0.04 0.04 0.04 0.04 0.05 0.05 0.06 0.06 nan nan nan 0.07 0.06 0.03 0.05 0.08 0.09 0.06 0.06 0.04 nan nan nan nan nan 0.04 0.10 0.03 0.02 0.00 0.01 0.04 0.04 0.13 0.14
0.07 0.14 0.11 0.07 0.15 0.07 0.07 0.07 0.05 0.05 0.06 0.06 0.08 0.08 0.08 0.07 nan nan nan 0.07 0.08 0.08 0.09 0.10 0.10 0.09 0.07 0.07 0.06 0.15 0.09 0.07 0.04 0.01 0.03 0.03 0.02 0.02 0.06 0.10 0.16 0.23 0.21
0.04 0.06 0.07 0.10 0.20 0.10 0.28 0.11 0.08 0.17 0.14 0.24 0.24 0.41 0.34 0.32 nan nan 0.16 0.25 0.21 0.19 0.10 0.14 0.15 0.13 nan nan 0.24 0.48 0.30 0.14 nan nan nan nan nan nan nan 0.86 2.09 2.25 1.12
0.04 0.04 0.05 0.11 0.34 0.26 0.11 0.21 0.28 0.30 0.27 0.41 0.39 0.38 0.25 0.59 nan nan nan 0.80 0.80 0.53 0.32 0.16 0.20 0.16 nan nan 0.32 0.47 0.61 0.18 0.12 0.36 0.13 0.07 nan nan nan 0.13 0.75 2.11 1.14
0.11 0.10 0.13 0.13 0.38 0.20 0.26 0.22 0.39 0.49 0.32 0.55 0.52 0.44 0.52 0.38 0.36 nan nan 0.53 0.72 0.90 0.81 0.54 0.34 nan nan nan nan 0.49 0.42 0.24 0.70 0.59 0.50 0.51 0.38 0.27 0.27 0.19 0.13 0.44 0.95
0.21 0.21 0.28 0.47 0.42 0.43 0.87 0.56 0.78 0.73 0.73 0.66 0.69 0.61 0.57 0.34 nan nan nan nan nan 1.31 0.67 0.32 0.36 nan nan nan 0.49 nan nan 0.45 1.37 1.35 1.11 0.79 0.46 0.43 0.28 0.24 0.07 0.14 0.14
0.51 0.73 0.73 0.66 0.69 0.71 1.04 0.69 0.95 0.82 0.92 0.58 0.78 0.77 0.61 0.62 0.69 nan nan nan nan 0.72 0.48 0.33 nan nan nan nan nan nan 0.37 1.01 1.32 1.43 0.87 0.47 0.24 0.16 0.09 0.21 0.14 0.15 0.15
1.01 0.53 0.42 0.57 0.48 0.57 0.76 0.88 1.28 1.01 0.85 0.97 1.14 1.09 0.74 0.69 0.52 0.56 1.00 0.75 0.53 0.88 nan 0.66 nan 0.42 nan nan 0.47 0.39 0.62 0.67 0.69 0.76 0.61 0.27 0.26 0.44 0.53 0.38 0.62 0.57 1.08
0.67 0.36 0.50 0.73 0.83 0.52 0.50 0.82 0.72 0.51 1.04 1.72 2.06 1.48 1.50 1.39 1.02 0.57 1.37 1.59 1.53 1.46 1.28 1.70 1.30 0.80 0.76 0.65 0.80 0.70 0.62 0.71 0.81 0.83 0.84 0.80 0.75 0.73 0.72 0.55 0.63 0.86 1.16
0.38 0.59 0.61 0.62 0.52 0.46 0.46 0.47 nan nan nan nan nan 1.25 1.65 nan nan nan nan nan nan nan 2.59 2.55 1.18 0.91 0.66 0.67 0.84 0.76 0.66 0.66 0.65 0.80 0.93 0.95 1.01 0.83 0.88 0.99 0.99 1.14 1.20
0.75 0.48 0.62 0.50 0.48 0.55 0.58 0.68 0.82 0.57 nan nan nan nan nan nan nan nan nan nan nan nan 3.96 1.94 1.53 1.00 0.90 0.67 0.83 0.74 0.72 0.60 0.39 0.74 0.74 0.85 0.96 1.11 1.19 1.13 1.02 0.95 1.41
0.66 0.62 0.71 0.68 0.65 0.68 0.75 0.78 0.82 0.98 1.13 0.92 nan nan nan nan nan nan nan nan 3.15 nan 2.79 2.72 2.26 1.77 1.28 1.12 0.90 0.84 0.85 0.80 0.76 0.93 0.99 1.47 1.70 1.81 1.66 1.66 1.25 1.58 1.54
0.70 0.59 0.67 0.67 0.65 0.69 0.76 0.67 0.75 0.75 0.79 1.04 1.00 1.03 0.90 nan nan nan nan 1.99 2.76 2.42 2.43 2.51 2.04 1.83 1.41 1.53 1.44 1.67 1.42 1.47 1.39 1.95 1.99 2.17 2.00 2.10 2.09 1.51 1.17 0.95 1.05
0.75 0.77 0.75 1.01 0.82 0.73 0.53 0.71 0.63 0.67 0.76 0.94 1.00 0.88 1.62 1.81 2.46 2.57 2.13 3.00 2.95 2.57 2.20 2.45 2.49 2.74 2.79 2.57 2.50 2.29 2.28 2.41 2.15 2.27 2.24 2.17 2.05 2.23 1.41 2.08 1.80 1.43 1.71
1.27 1.04 0.80 0.90 1.17 1.20 1.21 0.92 0.71 1.06 0.94 1.18 0.90 0.87 nan 1.61 1.79 2.00 2.39 2.16 2.60 2.87 2.30 2.56 2.67 3.51 3.67 4.08 3.30 3.14 2.89 1.70 2.23 2.48 2.67 2.67 2.58 3.26 1.93 1.20 1.86 2.03 1.97
1.38 1.46 1.46 1.56 1.00 1.04 1.27 0.81 0.94 0.97 0.91 0.78 0.59 0.70 nan 0.95 1.23 1.32 1.52 2.13 2.70 2.70 3.12 3.75 3.67 4.08 3.53 3.23 2.87 2.66 2.16 2.66 2.96 2.74 2.16 2.30 2.77 2.39 2.38 1.58 1.68 1.44 2.01
1.10 0.91 1.01 1.00 0.97 1.33 1.15 1.41 1.19 1.14 1.02 1.18 1.03 1.03 1.24 1.67 1.41 1.36 2.25 2.58 1.95 1.80 2.10 2.27 2.12 2.11 1.98 2.36 2.06 1.99 2.16 2.52 2.66 3.62 2.31 2.45 2.36 2.81 2.52 2.20 1.92 2.13 2.03
0.96 0.99 0.97 1.42 1.20 0.93 1.19 1.31 1.08 1.42 1.17 1.32 2.34 1.82 0.97 1.38 2.16 1.48 1.61 2.00 1.59 3.03 2.03 2.22 1.75 1.71 1.96 3.22 4.23 4.14 4.51 4.77 4.49 4.05 3.58 2.26 2.25 1.99 1.91 2.31 1.79 1.72 1.39
1.28 1.04 1.08 0.98 1.73 1.30 1.20 1.53 0.99 1.50 1.85 1.38 1.83 1.25 1.31 1.19 1.35 2.17 1.99 1.58 1.82 1.67 1.40 1.39 1.48 1.55 1.60 1.72 2.54 3.38 3.61 1.42 2.58 1.55 3.05 2.01 2.50 2.56 2.42 2.03 1.89 1.55 1.33
0.99 1.06 1.10 1.16 1.12 1.30 1.41 1.39 1.48 1.12 1.54 1.69 1.54 1.58 1.31 1.31 1.35 1.73 1.58 1.60 1.24 1.31 1.38 1.55 1.55 1.33 1.23 1.45 1.57 1.63 1.32 1.16 2.71 1.32 2.39 1.86 2.20 2.00 1.96 2.00 1.83 1.73 1.39
SL_Ratio
nan nan nan nan nan nan nan nan nan nan nan nan nan nan nan nan nan nan nan nan 4.3 5.0 nan nan nan nan nan 4.8 4.6 3.3 nan 4.3 4.5 5.0 5.0 nan 5.0 5.0 nan nan nan nan nan
nan nan nan nan nan nan nan nan nan nan nan nan nan nan nan nan nan nan 0.0 4.7 4.7 10.0 nan nan nan 5.3 5.2 5.3 5.0 5.2 5.2 4.5 4.5 5.6 6.7 6.3 6.3 6.7 nan nan nan nan nan
nan nan nan nan nan nan nan nan nan nan nan nan nan nan nan nan nan nan nan nan nan nan nan 5.7 5.2 5.4 5.5 4.7 5.3 5.4 4.7 5.6 5.1 5.3 5.2 6.3 6.3 5.0 nan nan nan nan nan
nan nan nan nan nan nan nan nan nan nan nan nan nan nan nan 0.0 0.0 5.0 5.0 4.8 4.8 4.8 5.0 5.3 5.3 4.8 5.3 5.6 6.0 5.8 5.7 5.6 5.7 6.1 5.9 6.3 6.9 0.0 nan nan 4.2 nan nan
nan nan nan nan nan 4.5 4.6 4.8 4.9 5.1 nan nan nan 5.5 4.0 5.0 4.0 5.2 4.4 4.8 4.8 4.9 4.9 4.7 4.6 3.5 nan nan 5.6 5.9 6.4 6.4 6.2 6.8 7.5 7.2 6.8 6.9 6.9 6.0 5.2 4.2 3.9
0.0 5.0 5.0 4.6 5.3 5.5 5.5 5.6 5.8 5.9 5.8 6.0 6.4 6.5 6.4 5.3 nan nan 4.4 4.8 4.8 4.2 4.6 5.1 5.2 4.6 5.7 nan nan nan nan 7.5 9.5 8.8 7.4 9.8 8.1 7.0 6.4 5.9 5.8 5.4 7.2
5.6 5.9 6.0 5.9 6.8 6.5 6.4 6.8 6.9 6.6 6.3 6.9 7.0 6.7 7.3 6.3 nan nan nan 5.3 5.4 4.6 4.7 5.2 5.9 6.1 3.9 6.1 nan nan nan nan nan 6.3 8.1 7.0 8.3 6.4 7.5 7.8 6.8 5.5 5.4
5.9 6.7 6.9 6.9 7.5 7.5 7.6 7.6 7.3 6.9 7.5 7.7 7.5 7.2 7.0 6.6 nan nan nan 5.1 5.5 5.0 4.9 5.7 6.4 6.5 6.5 6.5 6.3 7.7 6.5 6.4 6.1 5.9 6.5 6.9 6.7 6.7 7.2 7.8 7.9 6.8 5.8
6.1 6.5 6.9 7.4 7.7 7.8 8.0 8.2 8.4 8.6 8.9 9.4 8.3 8.7 8.3 7.8 nan nan 5.6 6.7 7.0 6.8 6.3 7.0 7.2 7.1 nan nan 8.9 9.7 9.3 8.1 nan nan nan nan nan nan nan 6.7 7.5 7.5 7.6
6.4 6.3 6.9 7.6 7.9 8.2 8.0 8.2 7.9 8.2 9.5 8.9 9.2 8.5 5.1 8.5 nan nan nan 6.6 8.4 7.8 7.7 7.3 3.4 7.3 nan nan 7.9 9.5 9.8 9.7 9.2 9.1 7.9 6.4 nan nan nan 7.7 7.1 8.1 7.5
7.3 7.9 8.2 8.2 8.3 8.1 7.9 7.7 8.1 9.5 9.3 9.2 9.1 8.9 8.7 6.9 7.2 nan nan 7.0 7.4 7.9 7.7 8.2 7.7 nan nan nan nan 9.1 9.6 8.7 9.4 9.2 8.8 8.3 7.4 7.0 6.7 7.0 7.6 6.9 7.6
8.1 8.9 8.8 8.6 8.1 8.1 8.6 8.8 8.9 9.3 9.4 9.5 9.4 9.2 8.5 8.4 nan nan nan nan nan 7.4 7.8 7.5 7.3 nan nan nan 4.9 nan nan 4.6 7.6 8.6 8.6 8.6 8.4 8.3 7.7 7.6 7.9 7.1 6.4
9.8 9.7 9.6 8.9 8.9 8.5 8.8 9.4 8.6 9.3 9.3 9.5 9.3 9.3 9.1 8.6 8.1 nan nan nan nan 6.6 6.8 7.7 nan nan nan nan nan nan 3.0 7.3 8.5 9.1 9.3 8.7 8.5 8.2 8.3 7.7 7.2 7.5 7.7
9.4 9.9 10.1 9.9 8.3 8.7 7.9 8.0 8.3 9.1 9.5 9.3 9.2 9.2 9.3 9.5 9.3 8.6 7.7 6.5 4.9 7.0 nan 6.7 nan 8.1 nan nan 7.0 7.6 8.3 8.3 9.1 9.4 8.8 8.5 8.1 8.3 8.4 8.1 8.2 8.0 7.9
10.1 10.7 8.9 8.5 8.3 9.2 9.4 8.6 9.3 8.6 8.8 9.6 9.3 9.7 9.9 9.6 9.4 9.5 8.6 8.1 7.2 7.5 6.8 8.8 9.1 9.6 9.7 9.7 9.6 9.6 9.5 9.4 9.5 9.0 9.1 9.0 8.7 8.4 8.3 8.3 8.4 8.3 8.5
10.8 10.1 9.5 9.0 8.9 9.4 9.9 10.1 nan nan nan nan nan 7.7 8.0 nan nan nan nan nan nan nan 8.1 9.0 10.0 10.1 10.4 10.4 10.3 10.5 10.4 9.3 10.1 9.8 9.5 9.2 9.2 9.1 9.0 8.7 8.5 8.7 9.1
9.6 10.1 10.1 9.5 10.6 10.4 10.2 10.2 10.2 9.7 nan nan nan nan nan nan nan nan nan nan nan nan 8.4 9.4 9.9 10.4 10.7 11.2 10.9 11.1 11.4 10.8 11.1 10.3 10.1 9.7 9.4 9.0 8.7 8.8 8.7 8.8 8.6
10.2 3.0 10.3 10.5 10.5 10.4 10.3 10.3 10.1 10.1 10.0 10.0 nan nan nan nan nan nan nan nan 8.5 nan 8.9 9.1 9.5 9.8 10.5 11.0 11.3 11.7 11.6 11.5 11.4 10.8 10.6 9.7 9.2 9.1 8.9 8.7 8.7 8.4 8.4
10.3 10.4 10.2 10.2 10.2 10.0 10.1 10.5 10.3 10.4 10.4 10.1 10.0 9.8 6.1 nan nan nan nan 9.1 8.9 9.2 9.2 9.2 9.6 10.0 10.5 10.3 10.4 10.2 10.7 10.6 10.6 10.0 9.8 9.5 9.2 9.1 8.8 8.7 8.9 6.8 7.2
10.4 4.2 8.0 10.3 10.7 10.7 11.0 10.9 11.0 10.8 10.9 10.3 10.2 10.1 9.6 8.6 9.0 8.9 9.1 8.7 8.9 9.1 9.4 9.4 9.5 9.4 9.3 9.4 9.4 9.6 9.7 9.7 10.0 9.9 9.9 9.7 9.4 8.9 9.7 8.6 8.6 9.2 8.4
10.6 10.9 3.0 11.2 10.7 10.5 10.4 11.0 11.4 10.7 10.7 10.3 10.4 10.2 nan 9.9 9.6 9.4 9.2 9.4 9.2 9.1 9.5 9.3 9.4 9.0 8.8 8.6 9.0 9.1 9.3 10.2 9.7 9.6 9.5 9.4 9.3 8.8 9.1 9.8 8.8 8.5 8.5
10.9 10.7 10.7 10.7 11.6 11.5 10.9 11.7 11.4 11.3 11.3 11.5 11.7 10.8 nan 10.6 10.4 10.2 10.3 9.7 9.3 9.5 9.3 9.1 9.1 8.9 9.1 9.2 9.5 9.5 9.9 9.4 9.2 9.5 10.1 10.0 9.5 9.5 8.9 9.3 9.0 9.1 8.4
11.5 12.3 11.9 11.9 11.9 4.5 11.4 10.8 11.1 11.0 11.2 10.6 10.7 11.2 11.1 10.0 10.4 10.7 9.8 9.8 10.3 10.6 10.2 10.0 10.1 10.2 10.1 9.8 10.0 10.0 10.1 9.9 9.8 9.0 10.2 10.0 10.1 9.5 9.2 9.2 9.0 8.7 8.4
12.0 11.7 11.6 10.7 11.1 11.8 11.1 11.0 11.5 4.1 11.0 10.9 10.1 10.1 11.1 10.8 10.2 11.1 10.8 10.4 10.7 9.5 10.1 10.0 10.5 10.5 10.0 9.1 8.6 8.6 8.4 8.3 8.6 8.8 9.1 10.3 10.4 9.6 10.2 9.2 9.3 8.6 9.3
11.2 11.7 11.5 11.6 10.5 11.1 11.3 10.8 11.7 10.8 10.5 10.8 10.2 11.1 11.5 11.7 11.1 10.1 10.2 10.6 10.2 10.2 10.5 10.5 10.4 10.3 10.2 10.1 9.5 9.0 8.3 3.0 7.7 3.0 9.4 10.4 10.2 10.2 10.3 10.0 9.8 10.0 9.6
11.5 11.3 11.2 11.1 11.2 10.9 10.7 10.7 10.7 11.2 10.7 10.6 10.8 10.8 11.0 11.0 10.9 10.2 10.4 10.4 10.7 10.5 10.3 10.1 10.1 10.2 10.2 10.1 10.1 4.1 3.0 3.0 8.9 3.0 9.7 10.5 10.4 11.0 11.1 11.0 11.0 10.5 10.5